Year,Month,Day,Hour,Minute,Value (Times are PST for temperature in C)
2019,03,27,00,00,7.60
2019,03,27,00,01,7.60
2019,03,27,00,02,7.60
2019,03,27,00,03,7.60
2019,03,27,00,04,7.60
2019,03,27,00,05,7.60
2019,03,27,00,06,7.60
2019,03,27,00,07,7.60
2019,03,27,00,08,7.70
2019,03,27,00,09,7.70
2019,03,27,00,10,7.70
2019,03,27,00,11,7.70
2019,03,27,00,12,7.70
2019,03,27,00,13,7.70
2019,03,27,00,14,7.70
2019,03,27,00,15,7.70
2019,03,27,00,16,7.70
2019,03,27,00,17,7.70
2019,03,27,00,18,7.70
2019,03,27,00,19,7.70
2019,03,27,00,20,7.70
2019,03,27,00,21,7.70
2019,03,27,00,22,7.70
2019,03,27,00,23,7.70
2019,03,27,00,24,7.70
2019,03,27,00,25,7.70
2019,03,27,00,26,7.70
2019,03,27,00,27,7.70
2019,03,27,00,28,7.70
2019,03,27,00,29,7.70
2019,03,27,00,30,7.70
2019,03,27,00,31,7.70
2019,03,27,00,32,7.70
2019,03,27,00,33,7.70
2019,03,27,00,34,7.70
2019,03,27,00,35,7.70
2019,03,27,00,36,7.70
2019,03,27,00,37,7.70
2019,03,27,00,38,7.70
2019,03,27,00,39,7.70
2019,03,27,00,40,7.70
2019,03,27,00,41,7.70
2019,03,27,00,42,7.70
2019,03,27,00,43,7.70
2019,03,27,00,44,7.70
2019,03,27,00,45,7.70
2019,03,27,00,46,7.70
2019,03,27,00,47,7.70
2019,03,27,00,48,7.70
2019,03,27,00,49,7.60
2019,03,27,00,50,7.60
2019,03,27,00,51,7.60
2019,03,27,00,52,7.70
2019,03,27,00,53,7.70
2019,03,27,00,54,7.70
2019,03,27,00,55,7.70
2019,03,27,00,56,7.70
2019,03,27,00,57,7.70
2019,03,27,00,58,7.70
2019,03,27,00,59,7.70
2019,03,27,01,00,7.70
2019,03,27,01,01,7.70
2019,03,27,01,02,7.70
2019,03,27,01,03,7.70
2019,03,27,01,04,7.70
2019,03,27,01,05,7.70
2019,03,27,01,06,7.70
2019,03,27,01,07,7.70
2019,03,27,01,08,7.70
2019,03,27,01,09,7.70
2019,03,27,01,10,7.70
2019,03,27,01,11,7.70
2019,03,27,01,12,7.70
2019,03,27,01,13,7.70
2019,03,27,01,14,7.70
2019,03,27,01,15,7.70
2019,03,27,01,16,7.70
2019,03,27,01,17,7.70
2019,03,27,01,18,7.70
2019,03,27,01,19,7.70
2019,03,27,01,20,7.70
2019,03,27,01,21,7.70
2019,03,27,01,22,7.80
2019,03,27,01,23,7.80
2019,03,27,01,24,7.80
2019,03,27,01,25,7.80
2019,03,27,01,26,7.80
2019,03,27,01,27,7.80
2019,03,27,01,28,7.80
2019,03,27,01,29,7.80
2019,03,27,01,30,7.80
2019,03,27,01,31,7.80
2019,03,27,01,32,7.80
2019,03,27,01,33,7.80
2019,03,27,01,34,7.80
2019,03,27,01,35,7.80
2019,03,27,01,36,7.80
2019,03,27,01,37,7.80
2019,03,27,01,38,7.80
2019,03,27,01,39,7.80
2019,03,27,01,40,7.80
2019,03,27,01,41,7.70
2019,03,27,01,42,7.70
2019,03,27,01,43,7.70
2019,03,27,01,44,7.70
2019,03,27,01,45,7.70
2019,03,27,01,46,7.70
2019,03,27,01,47,7.70
2019,03,27,01,48,7.80
2019,03,27,01,49,7.80
2019,03,27,01,50,7.80
2019,03,27,01,51,7.80
2019,03,27,01,52,7.80
2019,03,27,01,53,7.80
2019,03,27,01,54,7.80
2019,03,27,01,55,7.80
2019,03,27,01,56,7.80
2019,03,27,01,57,7.80
2019,03,27,01,58,7.80
2019,03,27,01,59,7.80
2019,03,27,02,00,7.80
2019,03,27,02,01,7.80
2019,03,27,02,02,7.80
2019,03,27,02,03,7.80
2019,03,27,02,04,7.80
2019,03,27,02,05,7.80
2019,03,27,02,06,7.80
2019,03,27,02,07,7.90
2019,03,27,02,08,7.90
2019,03,27,02,09,7.90
2019,03,27,02,10,8.00
2019,03,27,02,11,8.00
2019,03,27,02,12,8.00
2019,03,27,02,13,8.00
2019,03,27,02,14,8.10
2019,03,27,02,15,8.10
2019,03,27,02,16,8.10
2019,03,27,02,17,8.10
2019,03,27,02,18,8.10
2019,03,27,02,19,8.10
2019,03,27,02,20,8.10
2019,03,27,02,21,8.10
2019,03,27,02,22,8.10
2019,03,27,02,23,8.10
2019,03,27,02,24,8.10
2019,03,27,02,25,8.10
2019,03,27,02,26,8.10
2019,03,27,02,27,8.10
2019,03,27,02,28,8.10
2019,03,27,02,29,8.10
2019,03,27,02,30,8.20
2019,03,27,02,31,8.20
2019,03,27,02,32,8.20
2019,03,27,02,33,8.20
2019,03,27,02,34,8.20
2019,03,27,02,35,8.10
2019,03,27,02,36,8.10
2019,03,27,02,37,8.10
2019,03,27,02,38,8.10
2019,03,27,02,39,8.10
2019,03,27,02,40,8.10
2019,03,27,02,41,8.10
2019,03,27,02,42,8.10
2019,03,27,02,43,8.10
2019,03,27,02,44,8.10
2019,03,27,02,45,8.10
2019,03,27,02,46,8.10
2019,03,27,02,47,8.10
2019,03,27,02,48,8.10
2019,03,27,02,49,8.00
2019,03,27,02,50,8.00
2019,03,27,02,51,8.00
2019,03,27,02,52,8.00
2019,03,27,02,53,8.00
2019,03,27,02,54,7.90
2019,03,27,02,55,7.90
2019,03,27,02,56,7.90
2019,03,27,02,57,7.90
2019,03,27,02,58,7.90
2019,03,27,02,59,7.90
2019,03,27,03,00,7.80
2019,03,27,03,01,7.80
2019,03,27,03,02,7.80
2019,03,27,03,03,7.80
2019,03,27,03,04,7.80
2019,03,27,03,05,7.80
2019,03,27,03,06,7.90
2019,03,27,03,07,7.90
2019,03,27,03,08,7.90
2019,03,27,03,09,7.90
2019,03,27,03,10,7.90
2019,03,27,03,11,8.00
2019,03,27,03,12,8.00
2019,03,27,03,13,8.00
2019,03,27,03,14,8.00
2019,03,27,03,15,8.00
2019,03,27,03,16,8.00
2019,03,27,03,17,8.00
2019,03,27,03,18,8.00
2019,03,27,03,19,8.00
2019,03,27,03,20,8.00
2019,03,27,03,21,8.10
2019,03,27,03,22,8.10
2019,03,27,03,23,8.10
2019,03,27,03,24,8.10
2019,03,27,03,25,8.00
2019,03,27,03,26,8.00
2019,03,27,03,27,8.00
2019,03,27,03,28,8.00
2019,03,27,03,29,8.00
2019,03,27,03,30,8.00
2019,03,27,03,31,8.00
2019,03,27,03,32,8.00
2019,03,27,03,33,7.90
2019,03,27,03,34,7.90
2019,03,27,03,35,7.90
2019,03,27,03,36,7.90
2019,03,27,03,37,7.90
2019,03,27,03,38,7.90
2019,03,27,03,39,7.90
2019,03,27,03,40,7.90
2019,03,27,03,41,7.90
2019,03,27,03,42,7.90
2019,03,27,03,43,7.90
2019,03,27,03,44,7.90
2019,03,27,03,45,7.90
2019,03,27,03,46,8.00
2019,03,27,03,47,8.00
2019,03,27,03,48,8.00
2019,03,27,03,49,8.00
2019,03,27,03,50,8.00
2019,03,27,03,51,8.00
2019,03,27,03,52,8.00
2019,03,27,03,53,8.00
2019,03,27,03,54,8.00
2019,03,27,03,55,8.00
2019,03,27,03,56,8.00
2019,03,27,03,57,8.10
2019,03,27,03,58,8.10
2019,03,27,03,59,8.20
2019,03,27,04,00,8.20
2019,03,27,04,01,8.20
2019,03,27,04,02,8.20
2019,03,27,04,03,8.20
2019,03,27,04,04,8.20
2019,03,27,04,05,8.20
2019,03,27,04,06,8.30
2019,03,27,04,07,8.30
2019,03,27,04,08,8.30
2019,03,27,04,09,8.30
2019,03,27,04,10,8.30
2019,03,27,04,11,8.30
2019,03,27,04,12,8.30
2019,03,27,04,13,8.30
2019,03,27,04,14,8.30
2019,03,27,04,15,8.30
2019,03,27,04,16,8.30
2019,03,27,04,17,8.30
2019,03,27,04,18,8.30
2019,03,27,04,19,8.30
2019,03,27,04,20,8.30
2019,03,27,04,21,8.30
2019,03,27,04,22,8.30
2019,03,27,04,23,8.30
2019,03,27,04,24,8.30
2019,03,27,04,25,8.30
2019,03,27,04,26,8.30
2019,03,27,04,27,8.30
2019,03,27,04,28,8.30
2019,03,27,04,29,8.30
2019,03,27,04,30,8.30
2019,03,27,04,31,8.30
2019,03,27,04,32,8.30
2019,03,27,04,33,8.30
2019,03,27,04,34,8.30
2019,03,27,04,35,8.30
2019,03,27,04,36,8.30
2019,03,27,04,37,8.30
2019,03,27,04,38,8.30
2019,03,27,04,39,8.40
2019,03,27,04,40,8.40
2019,03,27,04,41,8.40
2019,03,27,04,42,8.40
2019,03,27,04,43,8.40
2019,03,27,04,44,8.40
2019,03,27,04,45,8.40
2019,03,27,04,46,8.40
2019,03,27,04,47,8.40
2019,03,27,04,48,8.40
2019,03,27,04,49,8.40
2019,03,27,04,50,8.40
2019,03,27,04,51,8.40
2019,03,27,04,52,8.40
2019,03,27,04,53,8.40
2019,03,27,04,54,8.40
2019,03,27,04,55,8.40
2019,03,27,04,56,8.40
2019,03,27,04,57,8.40
2019,03,27,04,58,8.40
2019,03,27,04,59,8.40
2019,03,27,05,00,8.40
2019,03,27,05,01,8.40
2019,03,27,05,02,8.40
2019,03,27,05,03,8.40
2019,03,27,05,04,8.40
2019,03,27,05,05,8.50
2019,03,27,05,06,8.50
2019,03,27,05,07,8.50
2019,03,27,05,08,8.50
2019,03,27,05,09,8.60
2019,03,27,05,10,8.50
2019,03,27,05,11,8.50
2019,03,27,05,12,8.60
2019,03,27,05,13,8.60
2019,03,27,05,14,8.60
2019,03,27,05,15,8.60
2019,03,27,05,16,8.50
2019,03,27,05,17,8.50
2019,03,27,05,18,8.60
2019,03,27,05,19,8.60
2019,03,27,05,20,8.50
2019,03,27,05,21,8.50
2019,03,27,05,22,8.50
2019,03,27,05,23,8.50
2019,03,27,05,24,8.40
2019,03,27,05,25,8.50
2019,03,27,05,26,8.40
2019,03,27,05,27,8.40
2019,03,27,05,28,8.40
2019,03,27,05,29,8.50
2019,03,27,05,30,8.40
2019,03,27,05,31,8.40
2019,03,27,05,32,8.50
2019,03,27,05,33,8.40
2019,03,27,05,34,8.40
2019,03,27,05,35,8.40
2019,03,27,05,36,8.40
2019,03,27,05,37,8.40
2019,03,27,05,38,8.50
2019,03,27,05,39,8.50
2019,03,27,05,40,8.50
2019,03,27,05,41,8.50
2019,03,27,05,42,8.50
2019,03,27,05,43,8.50
2019,03,27,05,44,8.50
2019,03,27,05,45,8.50
2019,03,27,05,46,8.60
2019,03,27,05,47,8.60
2019,03,27,05,48,8.60
2019,03,27,05,49,8.60
2019,03,27,05,50,8.60
2019,03,27,05,51,8.60
2019,03,27,05,52,8.60
2019,03,27,05,53,8.50
2019,03,27,05,54,8.50
2019,03,27,05,55,8.50
2019,03,27,05,56,8.60
2019,03,27,05,57,8.60
2019,03,27,05,58,8.60
2019,03,27,05,59,8.60
2019,03,27,06,00,8.60
2019,03,27,06,01,8.60
2019,03,27,06,02,8.60
2019,03,27,06,03,8.60
2019,03,27,06,04,8.60
2019,03,27,06,05,8.60
2019,03,27,06,06,8.60
2019,03,27,06,07,8.60
2019,03,27,06,08,8.60
2019,03,27,06,09,8.70
2019,03,27,06,10,8.70
2019,03,27,06,11,8.70
2019,03,27,06,12,8.70
2019,03,27,06,13,8.70
2019,03,27,06,14,8.70
2019,03,27,06,15,8.70
2019,03,27,06,16,8.70
2019,03,27,06,17,8.70
2019,03,27,06,18,8.80
2019,03,27,06,19,8.80
2019,03,27,06,20,8.80
2019,03,27,06,21,8.80
2019,03,27,06,22,8.80
2019,03,27,06,23,8.80
2019,03,27,06,24,8.80
2019,03,27,06,25,8.80
2019,03,27,06,26,8.80
2019,03,27,06,27,8.80
2019,03,27,06,28,8.80
2019,03,27,06,29,8.80
2019,03,27,06,30,8.90
2019,03,27,06,31,8.90
2019,03,27,06,32,8.90
2019,03,27,06,33,8.90
2019,03,27,06,34,8.90
2019,03,27,06,35,8.90
2019,03,27,06,36,8.90
2019,03,27,06,37,8.90
2019,03,27,06,38,8.90
2019,03,27,06,39,8.90
2019,03,27,06,40,8.90
2019,03,27,06,41,8.90
2019,03,27,06,42,8.90
2019,03,27,06,43,9.00
2019,03,27,06,44,9.00
2019,03,27,06,45,9.00
2019,03,27,06,46,9.00
2019,03,27,06,47,9.00
2019,03,27,06,48,9.00
2019,03,27,06,49,9.00
2019,03,27,06,50,9.00
2019,03,27,06,51,9.00
2019,03,27,06,52,9.00
2019,03,27,06,53,9.00
2019,03,27,06,54,9.00
2019,03,27,06,55,9.00
2019,03,27,06,56,9.00
2019,03,27,06,57,9.00
2019,03,27,06,58,9.00
2019,03,27,06,59,9.00
2019,03,27,07,00,9.00
2019,03,27,07,01,9.00
2019,03,27,07,02,9.00
2019,03,27,07,03,9.00
2019,03,27,07,04,9.00
2019,03,27,07,05,9.00
2019,03,27,07,06,9.10
2019,03,27,07,07,9.10
2019,03,27,07,08,9.10
2019,03,27,07,09,9.10
2019,03,27,07,10,9.10
2019,03,27,07,11,9.10
2019,03,27,07,12,9.10
2019,03,27,07,13,9.10
2019,03,27,07,14,9.10
2019,03,27,07,15,9.10
2019,03,27,07,16,9.10
2019,03,27,07,17,9.10
2019,03,27,07,18,9.10
2019,03,27,07,19,9.10
2019,03,27,07,20,9.10
2019,03,27,07,21,9.10
2019,03,27,07,22,9.10
2019,03,27,07,23,9.20
2019,03,27,07,24,9.20
2019,03,27,07,25,9.20
2019,03,27,07,26,9.20
2019,03,27,07,27,9.20
2019,03,27,07,28,9.20
2019,03,27,07,29,9.20
2019,03,27,07,30,9.20
2019,03,27,07,31,9.20
2019,03,27,07,32,9.20
2019,03,27,07,33,9.20
2019,03,27,07,34,9.30
2019,03,27,07,35,9.30
2019,03,27,07,36,9.30
2019,03,27,07,37,9.30
2019,03,27,07,38,9.30
2019,03,27,07,39,9.30
2019,03,27,07,40,9.30
2019,03,27,07,41,9.30
2019,03,27,07,42,9.40
2019,03,27,07,43,9.40
2019,03,27,07,44,9.40
2019,03,27,07,45,9.40
2019,03,27,07,46,9.40
2019,03,27,07,47,9.40
2019,03,27,07,48,9.30
2019,03,27,07,49,9.40
2019,03,27,07,50,9.40
2019,03,27,07,51,9.40
2019,03,27,07,52,9.40
2019,03,27,07,53,9.30
2019,03,27,07,54,9.30
2019,03,27,07,55,9.40
2019,03,27,07,56,9.40
2019,03,27,07,57,9.30
2019,03,27,07,58,9.40
2019,03,27,07,59,9.40
2019,03,27,08,00,9.40
2019,03,27,08,01,9.40
2019,03,27,08,02,9.40
2019,03,27,08,03,9.40
2019,03,27,08,04,9.40
2019,03,27,08,05,9.40
2019,03,27,08,06,9.40
2019,03,27,08,07,9.40
2019,03,27,08,08,9.50
2019,03,27,08,09,9.40
2019,03,27,08,10,9.50
2019,03,27,08,11,9.50
2019,03,27,08,12,9.50
2019,03,27,08,13,9.50
2019,03,27,08,14,9.50
2019,03,27,08,15,9.50
2019,03,27,08,16,9.60
2019,03,27,08,17,9.60
2019,03,27,08,18,9.60
2019,03,27,08,19,9.60
2019,03,27,08,20,9.60
2019,03,27,08,21,9.60
2019,03,27,08,22,9.60
2019,03,27,08,23,9.60
2019,03,27,08,24,9.70
2019,03,27,08,25,9.70
2019,03,27,08,26,9.70
2019,03,27,08,27,9.70
2019,03,27,08,28,9.70
2019,03,27,08,29,9.80
2019,03,27,08,30,9.80
2019,03,27,08,31,9.80
2019,03,27,08,32,9.90
2019,03,27,08,33,9.90
2019,03,27,08,34,9.90
2019,03,27,08,35,10.00
2019,03,27,08,36,10.00
2019,03,27,08,37,10.00
2019,03,27,08,38,10.00
2019,03,27,08,39,10.10
2019,03,27,08,40,10.10
2019,03,27,08,41,10.10
2019,03,27,08,42,10.10
2019,03,27,08,43,10.10
2019,03,27,08,44,10.20
2019,03,27,08,45,10.20
2019,03,27,08,46,10.20
2019,03,27,08,47,10.20
2019,03,27,08,48,10.20
2019,03,27,08,49,10.20
2019,03,27,08,50,10.20
2019,03,27,08,51,10.30
2019,03,27,08,52,10.30
2019,03,27,08,53,10.30
2019,03,27,08,54,10.40
2019,03,27,08,55,10.40
2019,03,27,08,56,10.40
2019,03,27,08,57,10.40
2019,03,27,08,58,10.40
2019,03,27,08,59,10.40
2019,03,27,09,00,10.40
2019,03,27,09,01,10.50
2019,03,27,09,02,10.50
2019,03,27,09,03,10.50
2019,03,27,09,04,10.60
2019,03,27,09,05,10.60
2019,03,27,09,06,10.60
2019,03,27,09,07,10.70
2019,03,27,09,08,10.70
2019,03,27,09,09,10.70
2019,03,27,09,10,10.70
2019,03,27,09,11,10.70
2019,03,27,09,12,10.70
2019,03,27,09,13,10.70
2019,03,27,09,14,10.80
2019,03,27,09,15,10.80
2019,03,27,09,16,10.80
2019,03,27,09,17,10.80
2019,03,27,09,18,10.90
2019,03,27,09,19,10.90
2019,03,27,09,20,10.90
2019,03,27,09,21,10.90
2019,03,27,09,22,11.00
2019,03,27,09,23,11.00
2019,03,27,09,24,11.00
2019,03,27,09,25,11.10
2019,03,27,09,26,11.10
2019,03,27,09,27,11.20
2019,03,27,09,28,11.20
2019,03,27,09,29,11.20
2019,03,27,09,30,11.30
2019,03,27,09,31,11.30
2019,03,27,09,32,11.30
2019,03,27,09,33,11.40
2019,03,27,09,34,11.40
2019,03,27,09,35,11.50
2019,03,27,09,36,11.50
2019,03,27,09,37,11.60
2019,03,27,09,38,11.60
2019,03,27,09,39,11.60
2019,03,27,09,40,11.60
2019,03,27,09,41,11.60
2019,03,27,09,42,11.60
2019,03,27,09,43,11.70
2019,03,27,09,44,11.70
2019,03,27,09,45,11.70
2019,03,27,09,46,11.70
2019,03,27,09,47,11.70
2019,03,27,09,48,11.70
2019,03,27,09,49,11.80
2019,03,27,09,50,11.80
2019,03,27,09,51,11.80
2019,03,27,09,52,11.80
2019,03,27,09,53,11.90
2019,03,27,09,54,11.90
2019,03,27,09,55,11.90
2019,03,27,09,56,11.90
2019,03,27,09,57,12.00
2019,03,27,09,58,12.00
2019,03,27,09,59,12.10
2019,03,27,10,00,12.10
2019,03,27,10,01,12.10
2019,03,27,10,02,12.20
2019,03,27,10,03,12.20
2019,03,27,10,04,12.20
2019,03,27,10,05,12.20
2019,03,27,10,06,12.30
2019,03,27,10,07,12.30
2019,03,27,10,08,12.30
2019,03,27,10,09,12.30
2019,03,27,10,10,12.40
2019,03,27,10,11,12.40
2019,03,27,10,12,12.40
2019,03,27,10,13,12.50
2019,03,27,10,14,12.50
2019,03,27,10,15,12.60
2019,03,27,10,16,12.60
2019,03,27,10,17,12.70
2019,03,27,10,18,12.70
2019,03,27,10,19,12.60
2019,03,27,10,20,12.60
2019,03,27,10,21,12.50
2019,03,27,10,22,12.50
2019,03,27,10,23,12.50
2019,03,27,10,24,12.50
2019,03,27,10,25,12.50
2019,03,27,10,26,12.50
2019,03,27,10,27,12.60
2019,03,27,10,28,12.60
2019,03,27,10,29,12.60
2019,03,27,10,30,12.70
2019,03,27,10,31,12.70
2019,03,27,10,32,12.80
2019,03,27,10,33,12.80
2019,03,27,10,34,12.70
2019,03,27,10,35,12.70
2019,03,27,10,36,12.60
2019,03,27,10,37,12.60
2019,03,27,10,38,12.60
2019,03,27,10,39,12.60
2019,03,27,10,40,12.60
2019,03,27,10,41,12.70
2019,03,27,10,42,12.70
2019,03,27,10,43,12.70
2019,03,27,10,44,12.60
2019,03,27,10,45,12.60
2019,03,27,10,46,12.50
2019,03,27,10,47,12.50
2019,03,27,10,48,12.50
2019,03,27,10,49,12.40
2019,03,27,10,50,12.30
2019,03,27,10,51,12.20
2019,03,27,10,52,12.00
2019,03,27,10,53,11.90
2019,03,27,10,54,11.80
2019,03,27,10,55,11.80
2019,03,27,10,56,11.70
2019,03,27,10,57,11.80
2019,03,27,10,58,11.80
2019,03,27,10,59,11.70
2019,03,27,11,00,11.70
2019,03,27,11,01,11.60
2019,03,27,11,02,11.60
2019,03,27,11,03,11.70
2019,03,27,11,04,11.70
2019,03,27,11,05,11.70
2019,03,27,11,06,11.80
2019,03,27,11,07,11.80
2019,03,27,11,08,11.90
2019,03,27,11,09,11.90
2019,03,27,11,10,11.90
2019,03,27,11,11,11.90
2019,03,27,11,12,11.90
2019,03,27,11,13,11.90
2019,03,27,11,14,11.90
2019,03,27,11,15,11.90
2019,03,27,11,16,11.90
2019,03,27,11,17,11.90
2019,03,27,11,18,11.90
2019,03,27,11,19,11.90
2019,03,27,11,20,12.00
2019,03,27,11,21,12.10
2019,03,27,11,22,12.10
2019,03,27,11,23,12.10
2019,03,27,11,24,12.10
2019,03,27,11,25,12.10
2019,03,27,11,26,12.10
2019,03,27,11,27,12.10
2019,03,27,11,28,12.20
2019,03,27,11,29,12.20
2019,03,27,11,30,12.20
2019,03,27,11,31,12.30
2019,03,27,11,32,12.30
2019,03,27,11,33,12.40
2019,03,27,11,34,12.40
2019,03,27,11,35,12.40
2019,03,27,11,36,12.40
2019,03,27,11,37,12.30
2019,03,27,11,38,12.30
2019,03,27,11,39,12.30
2019,03,27,11,40,12.40
2019,03,27,11,41,12.40
2019,03,27,11,42,12.50
2019,03,27,11,43,12.50
2019,03,27,11,44,12.60
2019,03,27,11,45,12.60
2019,03,27,11,46,12.60
2019,03,27,11,47,12.60
2019,03,27,11,48,12.60
2019,03,27,11,49,12.60
2019,03,27,11,50,12.60
2019,03,27,11,51,12.70
2019,03,27,11,52,12.70
2019,03,27,11,53,12.70
2019,03,27,11,54,12.70
2019,03,27,11,55,12.80
2019,03,27,11,56,12.80
2019,03,27,11,57,12.90
2019,03,27,11,58,13.00
2019,03,27,11,59,13.00
2019,03,27,12,00,13.10
2019,03,27,12,01,13.00
2019,03,27,12,02,13.00
2019,03,27,12,03,13.10
2019,03,27,12,04,13.10
2019,03,27,12,05,13.10
2019,03,27,12,06,13.20
2019,03,27,12,07,13.20
2019,03,27,12,08,13.20
2019,03,27,12,09,13.10
2019,03,27,12,10,13.10
2019,03,27,12,11,13.10
2019,03,27,12,12,13.00
2019,03,27,12,13,12.90
2019,03,27,12,14,12.90
2019,03,27,12,15,12.90
2019,03,27,12,16,12.90
2019,03,27,12,17,12.90
2019,03,27,12,18,12.90
2019,03,27,12,19,13.00
2019,03,27,12,20,13.00
2019,03,27,12,21,13.00
2019,03,27,12,22,13.00
2019,03,27,12,23,13.00
2019,03,27,12,24,13.00
2019,03,27,12,25,13.00
2019,03,27,12,26,13.00
2019,03,27,12,27,13.10
2019,03,27,12,28,13.10
2019,03,27,12,29,13.20
2019,03,27,12,30,13.30
2019,03,27,12,31,13.30
2019,03,27,12,32,13.40
2019,03,27,12,33,13.40
2019,03,27,12,34,13.40
2019,03,27,12,35,13.40
2019,03,27,12,36,13.40
2019,03,27,12,37,13.40
2019,03,27,12,38,13.40
2019,03,27,12,39,13.50
2019,03,27,12,40,13.50
2019,03,27,12,41,13.60
2019,03,27,12,42,13.70
2019,03,27,12,43,13.90
2019,03,27,12,44,14.00
2019,03,27,12,45,14.10
2019,03,27,12,46,14.10
2019,03,27,12,47,14.10
2019,03,27,12,48,14.20
2019,03,27,12,49,14.20
2019,03,27,12,50,14.20
2019,03,27,12,51,14.20
2019,03,27,12,52,14.30
2019,03,27,12,53,14.40
2019,03,27,12,54,14.60
2019,03,27,12,55,14.80
2019,03,27,12,56,15.00
2019,03,27,12,57,15.20
2019,03,27,12,58,15.30
2019,03,27,12,59,15.40
2019,03,27,13,00,15.50
2019,03,27,13,01,15.60
2019,03,27,13,02,15.60
2019,03,27,13,03,15.70
2019,03,27,13,04,15.70
2019,03,27,13,05,15.80
2019,03,27,13,06,15.80
2019,03,27,13,07,15.80
2019,03,27,13,08,15.90
2019,03,27,13,09,16.00
2019,03,27,13,10,16.00
2019,03,27,13,11,16.00
2019,03,27,13,12,15.90
2019,03,27,13,13,15.90
2019,03,27,13,14,16.00
2019,03,27,13,15,16.00
2019,03,27,13,16,16.10
2019,03,27,13,17,16.20
2019,03,27,13,18,16.20
2019,03,27,13,19,16.20
2019,03,27,13,20,16.30
2019,03,27,13,21,16.50
2019,03,27,13,22,16.60
2019,03,27,13,23,16.70
2019,03,27,13,24,16.80
2019,03,27,13,25,16.90
2019,03,27,13,26,17.00
2019,03,27,13,27,17.00
2019,03,27,13,28,17.10
2019,03,27,13,29,17.10
2019,03,27,13,30,17.20
2019,03,27,13,31,17.20
2019,03,27,13,32,17.20
2019,03,27,13,33,17.20
2019,03,27,13,34,17.30
2019,03,27,13,35,17.30
2019,03,27,13,36,17.30
2019,03,27,13,37,17.30
2019,03,27,13,38,17.40
2019,03,27,13,39,17.40
2019,03,27,13,40,17.40
2019,03,27,13,41,17.40
2019,03,27,13,42,17.40
2019,03,27,13,43,17.40
2019,03,27,13,44,17.40
2019,03,27,13,45,17.40
2019,03,27,13,46,17.50
2019,03,27,13,47,17.60
2019,03,27,13,48,17.70
2019,03,27,13,49,17.70
2019,03,27,13,50,17.70
2019,03,27,13,51,17.70
2019,03,27,13,52,17.70
2019,03,27,13,53,17.70
2019,03,27,13,54,17.70
2019,03,27,13,55,17.70
2019,03,27,13,56,17.70
2019,03,27,13,57,17.70
2019,03,27,13,58,17.70
2019,03,27,13,59,17.70
2019,03,27,14,00,17.80
2019,03,27,14,01,17.80
2019,03,27,14,02,17.80
2019,03,27,14,03,17.80
2019,03,27,14,04,17.80
2019,03,27,14,05,17.80
2019,03,27,14,06,17.80
2019,03,27,14,07,17.80
2019,03,27,14,08,17.80
2019,03,27,14,09,17.80
2019,03,27,14,10,17.80
2019,03,27,14,11,17.80
2019,03,27,14,12,17.80
2019,03,27,14,13,17.80
2019,03,27,14,14,17.80
2019,03,27,14,15,17.80
2019,03,27,14,16,17.80
2019,03,27,14,17,17.80
2019,03,27,14,18,17.90
2019,03,27,14,19,17.90
2019,03,27,14,20,17.90
2019,03,27,14,21,17.90
2019,03,27,14,22,18.00
2019,03,27,14,23,18.10
2019,03,27,14,24,18.10
2019,03,27,14,25,18.10
2019,03,27,14,26,18.10
2019,03,27,14,27,18.00
2019,03,27,14,28,18.00
2019,03,27,14,29,18.10
2019,03,27,14,30,18.10
2019,03,27,14,31,18.10
2019,03,27,14,32,18.10
2019,03,27,14,33,18.10
2019,03,27,14,34,18.20
2019,03,27,14,35,18.20
2019,03,27,14,36,18.20
2019,03,27,14,37,18.20
2019,03,27,14,38,18.20
2019,03,27,14,39,18.30
2019,03,27,14,40,18.30
2019,03,27,14,41,18.40
2019,03,27,14,42,18.50
2019,03,27,14,43,18.60
2019,03,27,14,44,18.70
2019,03,27,14,45,18.60
2019,03,27,14,46,18.60
2019,03,27,14,47,18.60
2019,03,27,14,48,18.60
2019,03,27,14,49,18.50
2019,03,27,14,50,18.40
2019,03,27,14,51,18.40
2019,03,27,14,52,18.40
2019,03,27,14,53,18.40
2019,03,27,14,54,18.40
2019,03,27,14,55,18.30
2019,03,27,14,56,18.30
2019,03,27,14,57,18.30
2019,03,27,14,58,18.40
2019,03,27,14,59,18.40
2019,03,27,15,00,18.50
2019,03,27,15,01,18.50
2019,03,27,15,02,18.50
2019,03,27,15,03,18.50
2019,03,27,15,04,18.40
2019,03,27,15,05,18.30
2019,03,27,15,06,18.20
2019,03,27,15,07,18.20
2019,03,27,15,08,18.10
2019,03,27,15,09,17.70
2019,03,27,15,10,17.10
2019,03,27,15,11,16.70
2019,03,27,15,12,16.40
2019,03,27,15,13,16.30
2019,03,27,15,14,16.20
2019,03,27,15,15,16.00
2019,03,27,15,16,15.70
2019,03,27,15,17,15.50
2019,03,27,15,18,15.30
2019,03,27,15,19,15.20
2019,03,27,15,20,15.10
2019,03,27,15,21,15.00
2019,03,27,15,22,15.00
2019,03,27,15,23,15.00
2019,03,27,15,24,15.00
2019,03,27,15,25,15.00
2019,03,27,15,26,15.00
2019,03,27,15,27,15.00
2019,03,27,15,28,14.90
2019,03,27,15,29,14.90
2019,03,27,15,30,14.80
2019,03,27,15,31,14.80
2019,03,27,15,32,14.90
2019,03,27,15,33,14.90
2019,03,27,15,34,14.90
2019,03,27,15,35,15.00
2019,03,27,15,36,15.10
2019,03,27,15,37,15.20
2019,03,27,15,38,15.30
2019,03,27,15,39,15.40
2019,03,27,15,40,15.40
2019,03,27,15,41,15.40
2019,03,27,15,42,15.30
2019,03,27,15,43,15.20
2019,03,27,15,44,15.10
2019,03,27,15,45,15.00
2019,03,27,15,46,14.80
2019,03,27,15,47,14.70
2019,03,27,15,48,14.70
2019,03,27,15,49,14.60
2019,03,27,15,50,14.50
2019,03,27,15,51,14.50
2019,03,27,15,52,14.60
2019,03,27,15,53,14.70
2019,03,27,15,54,14.80
2019,03,27,15,55,14.90
2019,03,27,15,56,15.00
2019,03,27,15,57,15.20
2019,03,27,15,58,15.20
2019,03,27,15,59,15.20
2019,03,27,16,00,15.10
2019,03,27,16,01,15.00
2019,03,27,16,02,14.90
2019,03,27,16,03,14.80
2019,03,27,16,04,14.70
2019,03,27,16,05,14.70
2019,03,27,16,06,14.60
2019,03,27,16,07,14.50
2019,03,27,16,08,14.20
2019,03,27,16,09,14.00
2019,03,27,16,10,13.90
2019,03,27,16,11,13.80
2019,03,27,16,12,13.80
2019,03,27,16,13,13.80
2019,03,27,16,14,13.70
2019,03,27,16,15,13.60
2019,03,27,16,16,13.30
2019,03,27,16,17,13.10
2019,03,27,16,18,12.90
2019,03,27,16,19,12.80
2019,03,27,16,20,12.70
2019,03,27,16,21,12.70
2019,03,27,16,22,12.70
2019,03,27,16,23,12.70
2019,03,27,16,24,12.70
2019,03,27,16,25,12.80
2019,03,27,16,26,12.90
2019,03,27,16,27,13.00
2019,03,27,16,28,13.10
2019,03,27,16,29,13.10
2019,03,27,16,30,13.10
2019,03,27,16,31,13.10
2019,03,27,16,32,13.10
2019,03,27,16,33,13.10
2019,03,27,16,34,13.10
2019,03,27,16,35,13.00
2019,03,27,16,36,12.90
2019,03,27,16,37,12.80
2019,03,27,16,38,12.60
2019,03,27,16,39,12.60
2019,03,27,16,40,12.60
2019,03,27,16,41,12.60
2019,03,27,16,42,12.70
2019,03,27,16,43,12.60
2019,03,27,16,44,12.60
2019,03,27,16,45,12.60
2019,03,27,16,46,12.60
2019,03,27,16,47,12.60
2019,03,27,16,48,12.60
2019,03,27,16,49,12.50
2019,03,27,16,50,12.50
2019,03,27,16,51,12.50
2019,03,27,16,52,12.50
2019,03,27,16,53,12.40
2019,03,27,16,54,12.30
2019,03,27,16,55,12.30
2019,03,27,16,56,12.20
2019,03,27,16,57,12.10
2019,03,27,16,58,12.10
2019,03,27,16,59,12.00
2019,03,27,17,00,12.10
2019,03,27,17,01,12.10
2019,03,27,17,02,12.10
2019,03,27,17,03,12.10
2019,03,27,17,04,12.10
2019,03,27,17,05,12.10
2019,03,27,17,06,12.20
2019,03,27,17,07,12.20
2019,03,27,17,08,12.30
2019,03,27,17,09,12.30
2019,03,27,17,10,12.30
2019,03,27,17,11,12.20
2019,03,27,17,12,12.20
2019,03,27,17,13,12.20
2019,03,27,17,14,12.30
2019,03,27,17,15,12.30
2019,03,27,17,16,12.30
2019,03,27,17,17,12.30
2019,03,27,17,18,12.40
2019,03,27,17,19,12.50
2019,03,27,17,20,12.60
2019,03,27,17,21,12.60
2019,03,27,17,22,12.50
2019,03,27,17,23,12.40
2019,03,27,17,24,12.40
2019,03,27,17,25,12.40
2019,03,27,17,26,12.30
2019,03,27,17,27,12.30
2019,03,27,17,28,12.30
2019,03,27,17,29,12.30
2019,03,27,17,30,12.40
2019,03,27,17,31,12.40
2019,03,27,17,32,12.40
2019,03,27,17,33,12.40
2019,03,27,17,34,12.40
2019,03,27,17,35,12.40
2019,03,27,17,36,12.40
2019,03,27,17,37,12.30
2019,03,27,17,38,12.30
2019,03,27,17,39,12.30
2019,03,27,17,40,12.40
2019,03,27,17,41,12.40